Home > Products > State Listing > West Virginia Data
Latest:
 RWRRLX |
  [top]

000
ASUS41 KRLX 222110
RWRRLX
West Virginia Regional Weather Roundup
National Weather Service Charleston WV
500 PM EDT WED OCT 22 2014

Note: "fair" indicates few or no clouds below 12,000 feet with no
significant weather and/or obstructions to visibility.

WVZ003-222200-
Northern Panhandle of West Virginia

CITY           SKY/WX    TMP DP  RH WIND       PRES   REMARKS
WHEELING       CLOUDY    48  40  73 NW7       30.18F
$$

WVZ009-222200-
Northwest West Virginia

CITY           SKY/WX    TMP DP  RH WIND       PRES   REMARKS
PARKERSBURG    CLOUDY    51  41  68 NW7       30.23R
$$

WVZ006-222200-
Western West Virginia

CITY           SKY/WX    TMP DP  RH WIND       PRES   REMARKS
HUNTINGTON     CLOUDY    51  43  74 N6        30.22S
$$

WVZ015-222200-
West Central West Virginia

CITY           SKY/WX    TMP DP  RH WIND       PRES   REMARKS
CHARLESTON     CLOUDY    51  43  74 NW7       30.20R
$$

WVZ022-031-222200-
North Central West Virginia

CITY           SKY/WX    TMP DP  RH WIND       PRES   REMARKS
CLARKSBURG     CLOUDY    48  44  86 NW6       30.16S
MORGANTOWN     CLOUDY    51  41  68 VRB5      30.16R
$$

WVZ025-035-042-045-222200-
Southern West Virginia

CITY           SKY/WX    TMP DP  RH WIND       PRES   REMARKS
BECKLEY        CLOUDY    43  41  93 NW7       30.16S FOG
LOGAN          CLOUDY    46  45  93 NW5       30.20R
BLUEFIELD      CLOUDY    44  40  85 NW7       30.16R
LEWISBURG      PTSUNNY   51  39  64 N9        30.11F
$$

WVZ047-222200-
Northern Mountains of West Virginia

CITY           SKY/WX    TMP DP  RH WIND       PRES   REMARKS
ELKINS         LGT RAIN  45  45 100 NW7       30.14S FOG
$$

WVZ052-222200-
Eastern Panhandle of West Virginia

CITY           SKY/WX    TMP DP  RH WIND       PRES   REMARKS
MARTINSBURG    PTSUNNY   56  43  61 NW16      29.99F
PETERSBURG     CLOUDY    53  41  64 NW12G18   30.09S
$$




000
ASUS41 KRLX 222010
RWRRLX
West Virginia Regional Weather Roundup
National Weather Service Charleston WV
400 PM EDT WED OCT 22 2014

Note: "fair" indicates few or no clouds below 12,000 feet with no
significant weather and/or obstructions to visibility.

WVZ003-222100-
Northern Panhandle of West Virginia

CITY           SKY/WX    TMP DP  RH WIND       PRES   REMARKS
WHEELING       CLOUDY    48  40  73 N13       30.19R
$$

WVZ009-222100-
Northwest West Virginia

CITY           SKY/WX    TMP DP  RH WIND       PRES   REMARKS
PARKERSBURG    CLOUDY    51  41  68 N10       30.22S
$$

WVZ006-222100-
Western West Virginia

CITY           SKY/WX    TMP DP  RH WIND       PRES   REMARKS
HUNTINGTON     CLOUDY    51  43  74 NW7       30.22S
$$

WVZ015-222100-
West Central West Virginia

CITY           SKY/WX    TMP DP  RH WIND       PRES   REMARKS
CHARLESTON     CLOUDY    51  43  74 NW9       30.19S
$$

WVZ022-031-222100-
North Central West Virginia

CITY           SKY/WX    TMP DP  RH WIND       PRES   REMARKS
CLARKSBURG     CLOUDY    49  44  83 NW12G20   30.16S
MORGANTOWN     CLOUDY    51  41  68 NW6G22    30.15F
$$

WVZ025-035-042-045-222100-
Southern West Virginia

CITY           SKY/WX    TMP DP  RH WIND       PRES   REMARKS
BECKLEY        LGT RAIN  43  41  93 N7        30.16S FOG
LOGAN          CLOUDY    46  45  93 NW5       30.19S
BLUEFIELD      CLOUDY    45  39  79 VRB5      30.15S
LEWISBURG      CLOUDY    50  39  66 N13       30.13R
$$

WVZ047-222100-
Northern Mountains of West Virginia

CITY           SKY/WX    TMP DP  RH WIND       PRES   REMARKS
ELKINS         LGT RAIN  45  44  97 NW9       30.14S FOG
$$

WVZ052-222100-
Eastern Panhandle of West Virginia

CITY           SKY/WX    TMP DP  RH WIND       PRES   REMARKS
MARTINSBURG    CLOUDY    56  44  64 NW15G26   30.00S
PETERSBURG     CLOUDY    54  41  62 N8        30.08S
$$




000
ASUS41 KRLX 221910
RWRRLX
West Virginia Regional Weather Roundup
National Weather Service Charleston WV
300 PM EDT WED OCT 22 2014

Note: "fair" indicates few or no clouds below 12,000 feet with no
significant weather and/or obstructions to visibility.

WVZ003-222000-
Northern Panhandle of West Virginia

CITY           SKY/WX    TMP DP  RH WIND       PRES   REMARKS
WHEELING       CLOUDY    49  40  71 N8        30.17S
$$

WVZ009-222000-
Northwest West Virginia

CITY           SKY/WX    TMP DP  RH WIND       PRES   REMARKS
PARKERSBURG    CLOUDY    51  42  71 NW6       30.22S
$$

WVZ006-222000-
Western West Virginia

CITY           SKY/WX    TMP DP  RH WIND       PRES   REMARKS
HUNTINGTON     CLOUDY    50  43  77 N7        30.22F
$$

WVZ015-222000-
West Central West Virginia

CITY           SKY/WX    TMP DP  RH WIND       PRES   REMARKS
CHARLESTON     CLOUDY    52  42  69 N8G17     30.19F
$$

WVZ022-031-222000-
North Central West Virginia

CITY           SKY/WX    TMP DP  RH WIND       PRES   REMARKS
CLARKSBURG     CLOUDY    49  45  86 N8        30.16R
MORGANTOWN     CLOUDY    51  42  71 N7G20     30.16R
$$

WVZ025-035-042-045-222000-
Southern West Virginia

CITY           SKY/WX    TMP DP  RH WIND       PRES   REMARKS
BECKLEY        CLOUDY    44  40  85 NW12      30.16S
LOGAN          CLOUDY    46  45  93 NW5       30.19F FOG
BLUEFIELD      CLOUDY    45  40  82 NW9       30.15S
LEWISBURG      CLOUDY    50  39  66 N8        30.11S
$$

WVZ047-222000-
Northern Mountains of West Virginia

CITY           SKY/WX    TMP DP  RH WIND       PRES   REMARKS
ELKINS         LGT RAIN  45  45 100 VRB3      30.13S FOG
$$

WVZ052-222000-
Eastern Panhandle of West Virginia

CITY           SKY/WX    TMP DP  RH WIND       PRES   REMARKS
MARTINSBURG    LGT RAIN  54  46  74 NW13G21   30.00F
PETERSBURG     CLOUDY    52  41  66 NW7       30.08S
$$




000
ASUS41 KRLX 221810
RWRRLX
West Virginia Regional Weather Roundup
National Weather Service Charleston WV
200 PM EDT WED OCT 22 2014

Note: "fair" indicates few or no clouds below 12,000 feet with no
significant weather and/or obstructions to visibility.

WVZ003-221900-
Northern Panhandle of West Virginia

CITY           SKY/WX    TMP DP  RH WIND       PRES   REMARKS
WHEELING       CLOUDY    48  41  76 N13       30.17F
$$

WVZ009-221900-
Northwest West Virginia

CITY           SKY/WX    TMP DP  RH WIND       PRES   REMARKS
PARKERSBURG    CLOUDY    52  43  71 N7        30.22F
$$

WVZ006-221900-
Western West Virginia

CITY           SKY/WX    TMP DP  RH WIND       PRES   REMARKS
HUNTINGTON     CLOUDY    50  43  77 NW6       30.23F
$$

WVZ015-221900-
West Central West Virginia

CITY           SKY/WX    TMP DP  RH WIND       PRES   REMARKS
CHARLESTON     CLOUDY    51  44  77 NW8       30.20F
$$

WVZ022-031-221900-
North Central West Virginia

CITY           SKY/WX    TMP DP  RH WIND       PRES   REMARKS
CLARKSBURG     LGT RAIN  48  45  89 N9        30.15F
MORGANTOWN     CLOUDY    50  43  77 NW9       30.15F
$$

WVZ025-035-042-045-221900-
Southern West Virginia

CITY           SKY/WX    TMP DP  RH WIND       PRES   REMARKS
BECKLEY        LGT RAIN  43  41  93 N13       30.16S
LOGAN          CLOUDY    45  45 100 NW5       30.20F FOG
BLUEFIELD      CLOUDY    44  40  85 NW7       30.15F
LEWISBURG      CLOUDY    51  39  64 NW9G20    30.11S
$$

WVZ047-221900-
Northern Mountains of West Virginia

CITY           SKY/WX    TMP DP  RH WIND       PRES   REMARKS
ELKINS         LGT RAIN  45  44  97 NW5       30.13S FOG
$$

WVZ052-221900-
Eastern Panhandle of West Virginia

CITY           SKY/WX    TMP DP  RH WIND       PRES   REMARKS
MARTINSBURG    LGT RAIN  53  45  74 NW15G23   30.01S
PETERSBURG     CLOUDY    52  41  65 NW14G20   30.08R
$$




000
ASUS41 KRLX 221710
RWRRLX
West Virginia Regional Weather Roundup
National Weather Service Charleston WV
100 PM EDT WED OCT 22 2014

Note: "fair" indicates few or no clouds below 12,000 feet with no
significant weather and/or obstructions to visibility.

WVZ003-221800-
Northern Panhandle of West Virginia

CITY           SKY/WX    TMP DP  RH WIND       PRES   REMARKS
WHEELING       CLOUDY    47  42  83 N14       30.18S
$$

WVZ009-221800-
Northwest West Virginia

CITY           SKY/WX    TMP DP  RH WIND       PRES   REMARKS
PARKERSBURG    CLOUDY    51  43  74 N7        30.23S
$$

WVZ006-221800-
Western West Virginia

CITY           SKY/WX    TMP DP  RH WIND       PRES   REMARKS
HUNTINGTON     CLOUDY    50  42  74 NW8       30.24R
$$

WVZ015-221800-
West Central West Virginia

CITY           SKY/WX    TMP DP  RH WIND       PRES   REMARKS
CHARLESTON     CLOUDY    49  44  83 NW6       30.21S
$$

WVZ022-031-221800-
North Central West Virginia

CITY           SKY/WX    TMP DP  RH WIND       PRES   REMARKS
CLARKSBURG     LGT RAIN  48  46  93 NW10      30.16S FOG
MORGANTOWN     CLOUDY    50  42  74 NW6       30.16R
$$

WVZ025-035-042-045-221800-
Southern West Virginia

CITY           SKY/WX    TMP DP  RH WIND       PRES   REMARKS
BECKLEY        LGT RAIN  43  41  93 NW12G20   30.16S FOG
LOGAN          CLOUDY    45  45 100 N5        30.21S FOG
BLUEFIELD      CLOUDY    44  40  85 NW8       30.16S
LEWISBURG      CLOUDY    51  39  64 N8G16     30.11S
$$

WVZ047-221800-
Northern Mountains of West Virginia

CITY           SKY/WX    TMP DP  RH WIND       PRES   REMARKS
ELKINS         CLOUDY    45  43  93 NW10      30.13F
$$

WVZ052-221800-
Eastern Panhandle of West Virginia

CITY           SKY/WX    TMP DP  RH WIND       PRES   REMARKS
MARTINSBURG    LGT RAIN  53  45  74 NW13      30.01S
PETERSBURG     CLOUDY    55  41  59 N12G18    30.07S
$$




000
ASUS41 KRLX 221710
RWRRLX
West Virginia Regional Weather Roundup
National Weather Service Charleston WV
100 PM EDT WED OCT 22 2014

Note: "fair" indicates few or no clouds below 12,000 feet with no
significant weather and/or obstructions to visibility.

WVZ003-221800-
Northern Panhandle of West Virginia

CITY           SKY/WX    TMP DP  RH WIND       PRES   REMARKS
WHEELING       CLOUDY    47  42  83 N14       30.18S
$$

WVZ009-221800-
Northwest West Virginia

CITY           SKY/WX    TMP DP  RH WIND       PRES   REMARKS
PARKERSBURG    CLOUDY    51  43  74 N7        30.23S
$$

WVZ006-221800-
Western West Virginia

CITY           SKY/WX    TMP DP  RH WIND       PRES   REMARKS
HUNTINGTON     CLOUDY    50  42  74 NW8       30.24R
$$

WVZ015-221800-
West Central West Virginia

CITY           SKY/WX    TMP DP  RH WIND       PRES   REMARKS
CHARLESTON     CLOUDY    49  44  83 NW6       30.21S
$$

WVZ022-031-221800-
North Central West Virginia

CITY           SKY/WX    TMP DP  RH WIND       PRES   REMARKS
CLARKSBURG     LGT RAIN  48  46  93 NW10      30.16S FOG
MORGANTOWN     CLOUDY    50  42  74 NW6       30.16R
$$

WVZ025-035-042-045-221800-
Southern West Virginia

CITY           SKY/WX    TMP DP  RH WIND       PRES   REMARKS
BECKLEY        LGT RAIN  43  41  93 NW12G20   30.16S FOG
LOGAN          CLOUDY    45  45 100 N5        30.21S FOG
BLUEFIELD      CLOUDY    44  40  85 NW8       30.16S
LEWISBURG      CLOUDY    51  39  64 N8G16     30.11S
$$

WVZ047-221800-
Northern Mountains of West Virginia

CITY           SKY/WX    TMP DP  RH WIND       PRES   REMARKS
ELKINS         CLOUDY    45  43  93 NW10      30.13F
$$

WVZ052-221800-
Eastern Panhandle of West Virginia

CITY           SKY/WX    TMP DP  RH WIND       PRES   REMARKS
MARTINSBURG    LGT RAIN  53  45  74 NW13      30.01S
PETERSBURG     CLOUDY    55  41  59 N12G18    30.07S
$$




000
ASUS41 KRLX 221610
RWRRLX
West Virginia Regional Weather Roundup
National Weather Service Charleston WV
1200 PM EDT WED OCT 22 2014

Note: "fair" indicates few or no clouds below 12,000 feet with no
significant weather and/or obstructions to visibility.

WVZ003-221700-
Northern Panhandle of West Virginia

CITY           SKY/WX    TMP DP  RH WIND       PRES   REMARKS
WHEELING       CLOUDY    47  43  86 N12G21    30.18R
$$

WVZ009-221700-
Northwest West Virginia

CITY           SKY/WX    TMP DP  RH WIND       PRES   REMARKS
PARKERSBURG    CLOUDY    50  43  77 NW10G17   30.23R
$$

WVZ006-221700-
Western West Virginia

CITY           SKY/WX    TMP DP  RH WIND       PRES   REMARKS
HUNTINGTON     CLOUDY    49  43  80 N6        30.23S
$$

WVZ015-221700-
West Central West Virginia

CITY           SKY/WX    TMP DP  RH WIND       PRES   REMARKS
CHARLESTON     CLOUDY    49  44  83 NW7       30.21R
$$

WVZ022-031-221700-
North Central West Virginia

CITY           SKY/WX    TMP DP  RH WIND       PRES   REMARKS
CLARKSBURG     CLOUDY    48  44  86 N6        30.16R
MORGANTOWN     CLOUDY    50  43  77 VRB5      30.15S
$$

WVZ025-035-042-045-221700-
Southern West Virginia

CITY           SKY/WX    TMP DP  RH WIND       PRES   REMARKS
BECKLEY        LGT RAIN  43  41  93 N14G21    30.16R FOG
LOGAN          CLOUDY    45  45 100 VRB5G13   30.21R FOG
BLUEFIELD      CLOUDY    43  40  89 VRB5      30.16R FOG
LEWISBURG      CLOUDY    49  40  69 NW8       30.12R
$$

WVZ047-221700-
Northern Mountains of West Virginia

CITY           SKY/WX    TMP DP  RH WIND       PRES   REMARKS
ELKINS         CLOUDY    45  44  97 NW9       30.14R
$$

WVZ052-221700-
Eastern Panhandle of West Virginia

CITY           SKY/WX    TMP DP  RH WIND       PRES   REMARKS
MARTINSBURG    CLOUDY    55  43  63 N15G24    30.01S
PETERSBURG       N/A    N/A N/A N/A MISG        N/A
$$




000
ASUS41 KRLX 221610
RWRRLX
West Virginia Regional Weather Roundup
National Weather Service Charleston WV
1200 PM EDT WED OCT 22 2014

Note: "fair" indicates few or no clouds below 12,000 feet with no
significant weather and/or obstructions to visibility.

WVZ003-221700-
Northern Panhandle of West Virginia

CITY           SKY/WX    TMP DP  RH WIND       PRES   REMARKS
WHEELING       CLOUDY    47  43  86 N12G21    30.18R
$$

WVZ009-221700-
Northwest West Virginia

CITY           SKY/WX    TMP DP  RH WIND       PRES   REMARKS
PARKERSBURG    CLOUDY    50  43  77 NW10G17   30.23R
$$

WVZ006-221700-
Western West Virginia

CITY           SKY/WX    TMP DP  RH WIND       PRES   REMARKS
HUNTINGTON     CLOUDY    49  43  80 N6        30.23S
$$

WVZ015-221700-
West Central West Virginia

CITY           SKY/WX    TMP DP  RH WIND       PRES   REMARKS
CHARLESTON     CLOUDY    49  44  83 NW7       30.21R
$$

WVZ022-031-221700-
North Central West Virginia

CITY           SKY/WX    TMP DP  RH WIND       PRES   REMARKS
CLARKSBURG     CLOUDY    48  44  86 N6        30.16R
MORGANTOWN     CLOUDY    50  43  77 VRB5      30.15S
$$

WVZ025-035-042-045-221700-
Southern West Virginia

CITY           SKY/WX    TMP DP  RH WIND       PRES   REMARKS
BECKLEY        LGT RAIN  43  41  93 N14G21    30.16R FOG
LOGAN          CLOUDY    45  45 100 VRB5G13   30.21R FOG
BLUEFIELD      CLOUDY    43  40  89 VRB5      30.16R FOG
LEWISBURG      CLOUDY    49  40  69 NW8       30.12R
$$

WVZ047-221700-
Northern Mountains of West Virginia

CITY           SKY/WX    TMP DP  RH WIND       PRES   REMARKS
ELKINS         CLOUDY    45  44  97 NW9       30.14R
$$

WVZ052-221700-
Eastern Panhandle of West Virginia

CITY           SKY/WX    TMP DP  RH WIND       PRES   REMARKS
MARTINSBURG    CLOUDY    55  43  63 N15G24    30.01S
PETERSBURG       N/A    N/A N/A N/A MISG        N/A
$$




000
ASUS41 KRLX 221510
RWRRLX
West Virginia Regional Weather Roundup
National Weather Service Charleston WV
1100 AM EDT WED OCT 22 2014

Note: "fair" indicates few or no clouds below 12,000 feet with no
significant weather and/or obstructions to visibility.

WVZ003-221600-
Northern Panhandle of West Virginia

CITY           SKY/WX    TMP DP  RH WIND       PRES   REMARKS
WHEELING       NOT AVBL
$$

WVZ009-221600-
Northwest West Virginia

CITY           SKY/WX    TMP DP  RH WIND       PRES   REMARKS
PARKERSBURG    NOT AVBL
$$

WVZ006-221600-
Western West Virginia

CITY           SKY/WX    TMP DP  RH WIND       PRES   REMARKS
HUNTINGTON     NOT AVBL
$$

WVZ015-221600-
West Central West Virginia

CITY           SKY/WX    TMP DP  RH WIND       PRES   REMARKS
CHARLESTON     NOT AVBL
$$

WVZ022-031-221600-
North Central West Virginia

CITY           SKY/WX    TMP DP  RH WIND       PRES   REMARKS
CLARKSBURG     NOT AVBL
MORGANTOWN     NOT AVBL
$$

WVZ025-035-042-045-221600-
Southern West Virginia

CITY           SKY/WX    TMP DP  RH WIND       PRES   REMARKS
BECKLEY        NOT AVBL
LOGAN          NOT AVBL
BLUEFIELD      NOT AVBL
LEWISBURG      NOT AVBL
$$

WVZ047-221600-
Northern Mountains of West Virginia

CITY           SKY/WX    TMP DP  RH WIND       PRES   REMARKS
ELKINS         NOT AVBL
$$

WVZ052-221600-
Eastern Panhandle of West Virginia

CITY           SKY/WX    TMP DP  RH WIND       PRES   REMARKS
MARTINSBURG    NOT AVBL
PETERSBURG     NOT AVBL
$$




000
ASUS41 KRLX 221410
RWRRLX
West Virginia Regional Weather Roundup
National Weather Service Charleston WV
1000 AM EDT WED OCT 22 2014

Note: "fair" indicates few or no clouds below 12,000 feet with no
significant weather and/or obstructions to visibility.

WVZ003-221500-
Northern Panhandle of West Virginia

CITY           SKY/WX    TMP DP  RH WIND       PRES   REMARKS
WHEELING       CLOUDY    47  43  86 N12       30.16R
$$

WVZ009-221500-
Northwest West Virginia

CITY           SKY/WX    TMP DP  RH WIND       PRES   REMARKS
PARKERSBURG    CLOUDY    49  44  83 N6        30.21R
$$

WVZ006-221500-
Western West Virginia

CITY           SKY/WX    TMP DP  RH WIND       PRES   REMARKS
HUNTINGTON     CLOUDY    47  42  83 VRB6      30.22R
$$

WVZ015-221500-
West Central West Virginia

CITY           SKY/WX    TMP DP  RH WIND       PRES   REMARKS
CHARLESTON     CLOUDY    47  43  86 VRB6      30.19R
$$

WVZ022-031-221500-
North Central West Virginia

CITY           SKY/WX    TMP DP  RH WIND       PRES   REMARKS
CLARKSBURG     CLOUDY    47  43  86 N9        30.14R
MORGANTOWN     CLOUDY    49  42  77 N10       30.14R
$$

WVZ025-035-042-045-221500-
Southern West Virginia

CITY           SKY/WX    TMP DP  RH WIND       PRES   REMARKS
BECKLEY        CLOUDY    42  39  89 NW12      30.14R FOG
LOGAN          FOG       43  43 100 CALM      30.19R VSB 3/4
BLUEFIELD      CLOUDY    42  38  85 W8        30.15R FOG
LEWISBURG      CLOUDY    47  39  73 W3        30.11R
$$

WVZ047-221500-
Northern Mountains of West Virginia

CITY           SKY/WX    TMP DP  RH WIND       PRES   REMARKS
ELKINS         CLOUDY    45  45 100 NW13      30.11R
$$

WVZ052-221500-
Eastern Panhandle of West Virginia

CITY           SKY/WX    TMP DP  RH WIND       PRES   REMARKS
MARTINSBURG    CLOUDY    54  44  69 NW15G24   30.00R
PETERSBURG     CLOUDY   N/A N/A N/A NW7       30.07R
$$




000
ASUS41 KRLX 221310
RWRRLX
West Virginia Regional Weather Roundup
National Weather Service Charleston WV
900 AM EDT WED OCT 22 2014

Note: "fair" indicates few or no clouds below 12,000 feet with no
significant weather and/or obstructions to visibility.

WVZ003-221400-
Northern Panhandle of West Virginia

CITY           SKY/WX    TMP DP  RH WIND       PRES   REMARKS
WHEELING       CLOUDY    46  43  89 N12       30.15R
$$

WVZ009-221400-
Northwest West Virginia

CITY           SKY/WX    TMP DP  RH WIND       PRES   REMARKS
PARKERSBURG    CLOUDY    48  43  82 NW6       30.20R
$$

WVZ006-221400-
Western West Virginia

CITY           SKY/WX    TMP DP  RH WIND       PRES   REMARKS
HUNTINGTON     CLOUDY    46  42  86 NW5       30.21R
$$

WVZ015-221400-
West Central West Virginia

CITY           SKY/WX    TMP DP  RH WIND       PRES   REMARKS
CHARLESTON     CLOUDY    46  43  89 NW6       30.18R
$$

WVZ022-031-221400-
North Central West Virginia

CITY           SKY/WX    TMP DP  RH WIND       PRES   REMARKS
CLARKSBURG     CLOUDY    47  45  93 N8        30.12R
MORGANTOWN     CLOUDY    49  43  80 N9G21     30.13R
$$

WVZ025-035-042-045-221400-
Southern West Virginia

CITY           SKY/WX    TMP DP  RH WIND       PRES   REMARKS
BECKLEY        LGT RAIN  41  39  93 NW8       30.13R FOG
LOGAN          FOG       43  43 100 VRB6      30.17R VSB 1/4
BLUEFIELD      CLOUDY    41  37  86 NW6       30.13R FOG
LEWISBURG      CLOUDY    46  38  75 NW5       30.09R
$$

WVZ047-221400-
Northern Mountains of West Virginia

CITY           SKY/WX    TMP DP  RH WIND       PRES   REMARKS
ELKINS         CLOUDY    45  44  97 NW6       30.10R FOG
$$

WVZ052-221400-
Eastern Panhandle of West Virginia

CITY           SKY/WX    TMP DP  RH WIND       PRES   REMARKS
MARTINSBURG    CLOUDY    54  44  69 N13G26    29.99R
PETERSBURG     CLOUDY   N/A N/A N/A CALM      30.05R
$$




000
ASUS41 KRLX 221210
RWRRLX
West Virginia Regional Weather Roundup
National Weather Service Charleston WV
800 AM EDT WED OCT 22 2014

Note: "fair" indicates few or no clouds below 12,000 feet with no
significant weather and/or obstructions to visibility.

WVZ003-221300-
Northern Panhandle of West Virginia

CITY           SKY/WX    TMP DP  RH WIND       PRES   REMARKS
WHEELING       CLOUDY    47  42  83 N13       30.13R
$$

WVZ009-221300-
Northwest West Virginia

CITY           SKY/WX    TMP DP  RH WIND       PRES   REMARKS
PARKERSBURG    CLOUDY    48  44  86 NW5       30.18R
$$

WVZ006-221300-
Western West Virginia

CITY           SKY/WX    TMP DP  RH WIND       PRES   REMARKS
HUNTINGTON     CLOUDY    45  41  86 NW7       30.19R
$$

WVZ015-221300-
West Central West Virginia

CITY           SKY/WX    TMP DP  RH WIND       PRES   REMARKS
CHARLESTON     DRIZZLE   45  43  93 NW7       30.16R
$$

WVZ022-031-221300-
North Central West Virginia

CITY           SKY/WX    TMP DP  RH WIND       PRES   REMARKS
CLARKSBURG     CLOUDY    47  45  93 N10G17    30.09R
MORGANTOWN     CLOUDY    49  43  80 N9G16     30.10R
$$

WVZ025-035-042-045-221300-
Southern West Virginia

CITY           SKY/WX    TMP DP  RH WIND       PRES   REMARKS
BECKLEY        LGT RAIN  41  39  93 NW10      30.10R FOG
LOGAN          LGT RAIN  43  43 100 NW5       30.15R
BLUEFIELD      CLOUDY    41  37  86 NW5       30.11R
LEWISBURG      CLOUDY    45  38  76 NW3       30.07R
$$

WVZ047-221300-
Northern Mountains of West Virginia

CITY           SKY/WX    TMP DP  RH WIND       PRES   REMARKS
ELKINS         CLOUDY    44  44 100 N3        30.07R FOG
$$

WVZ052-221300-
Eastern Panhandle of West Virginia

CITY           SKY/WX    TMP DP  RH WIND       PRES   REMARKS
MARTINSBURG    CLOUDY    54  45  71 N12       29.97R
PETERSBURG     CLOUDY   N/A N/A N/A CALM      30.03R
$$




000
ASUS41 KRLX 221110
RWRRLX
West Virginia Regional Weather Roundup
National Weather Service Charleston WV
700 AM EDT WED OCT 22 2014

Note: "fair" indicates few or no clouds below 12,000 feet with no
significant weather and/or obstructions to visibility.

WVZ003-221200-
Northern Panhandle of West Virginia

CITY           SKY/WX    TMP DP  RH WIND       PRES   REMARKS
WHEELING       CLOUDY    47  42  83 NW9       30.11R
$$

WVZ009-221200-
Northwest West Virginia

CITY           SKY/WX    TMP DP  RH WIND       PRES   REMARKS
PARKERSBURG    CLOUDY    47  44  90 NW6       30.16R
$$

WVZ006-221200-
Western West Virginia

CITY           SKY/WX    TMP DP  RH WIND       PRES   REMARKS
HUNTINGTON     CLOUDY    45  41  86 NW6       30.17R
$$

WVZ015-221200-
West Central West Virginia

CITY           SKY/WX    TMP DP  RH WIND       PRES   REMARKS
CHARLESTON     LGT RAIN  45  42  89 NW9       30.14R FOG
$$

WVZ022-031-221200-
North Central West Virginia

CITY           SKY/WX    TMP DP  RH WIND       PRES   REMARKS
CLARKSBURG     LGT RAIN  46  46 100 VRB6      30.08R
MORGANTOWN     CLOUDY    50  45  83 NW8       30.07R
$$

WVZ025-035-042-045-221200-
Southern West Virginia

CITY           SKY/WX    TMP DP  RH WIND       PRES   REMARKS
BECKLEY        CLOUDY    40  38  93 NW8G17    30.08R FOG
LOGAN          CLOUDY    43  43 100 N5        30.14R FOG
BLUEFIELD      CLOUDY    41  37  86 NW8       30.09R
LEWISBURG      CLOUDY    45  38  76 CALM      30.05R
$$

WVZ047-221200-
Northern Mountains of West Virginia

CITY           SKY/WX    TMP DP  RH WIND       PRES   REMARKS
ELKINS         LGT RAIN  44  43  96 N5        30.06R FOG
$$

WVZ052-221200-
Eastern Panhandle of West Virginia

CITY           SKY/WX    TMP DP  RH WIND       PRES   REMARKS
MARTINSBURG    CLOUDY    53  45  74 N13       29.95R
PETERSBURG     CLOUDY   N/A N/A N/A CALM      30.02R
$$




000
ASUS41 KRLX 221010
RWRRLX
West Virginia Regional Weather Roundup
National Weather Service Charleston WV
600 AM EDT WED OCT 22 2014

Note: "fair" indicates few or no clouds below 12,000 feet with no
significant weather and/or obstructions to visibility.

WVZ003-221100-
Northern Panhandle of West Virginia

CITY           SKY/WX    TMP DP  RH WIND       PRES   REMARKS
WHEELING       CLOUDY    47  43  86 N14G22    30.09R
$$

WVZ009-221100-
Northwest West Virginia

CITY           SKY/WX    TMP DP  RH WIND       PRES   REMARKS
PARKERSBURG    CLOUDY    47  44  90 NW9       30.14R
$$

WVZ006-221100-
Western West Virginia

CITY           SKY/WX    TMP DP  RH WIND       PRES   REMARKS
HUNTINGTON     CLOUDY    45  41  86 VRB7      30.15R
$$

WVZ015-221100-
West Central West Virginia

CITY           SKY/WX    TMP DP  RH WIND       PRES   REMARKS
CHARLESTON     CLOUDY    45  42  89 NW7       30.12R
$$

WVZ022-031-221100-
North Central West Virginia

CITY           SKY/WX    TMP DP  RH WIND       PRES   REMARKS
CLARKSBURG     LGT RAIN  46  45  96 W6        30.06R FOG
MORGANTOWN     CLOUDY    49  45  86 VRB7      30.06R
$$

WVZ025-035-042-045-221100-
Southern West Virginia

CITY           SKY/WX    TMP DP  RH WIND       PRES   REMARKS
BECKLEY        LGT RAIN  41  39  93 NW9       30.07R
LOGAN          CLOUDY    43  41  93 NW6G13    30.12R FOG
BLUEFIELD      CLOUDY    41  37  86 W6        30.07R
LEWISBURG      CLOUDY    45  38  75 NW6       30.03S
$$

WVZ047-221100-
Northern Mountains of West Virginia

CITY           SKY/WX    TMP DP  RH WIND       PRES   REMARKS
ELKINS         LGT RAIN  44  43  96 NW7       30.05R
$$

WVZ052-221100-
Eastern Panhandle of West Virginia

CITY           SKY/WX    TMP DP  RH WIND       PRES   REMARKS
MARTINSBURG    CLOUDY    53  46  77 N10       29.94R
PETERSBURG     CLOUDY   N/A N/A N/A CALM      30.00S
$$




000
ASUS41 KRLX 221010
RWRRLX
West Virginia Regional Weather Roundup
National Weather Service Charleston WV
600 AM EDT WED OCT 22 2014

Note: "fair" indicates few or no clouds below 12,000 feet with no
significant weather and/or obstructions to visibility.

WVZ003-221100-
Northern Panhandle of West Virginia

CITY           SKY/WX    TMP DP  RH WIND       PRES   REMARKS
WHEELING       CLOUDY    47  43  86 N14G22    30.09R
$$

WVZ009-221100-
Northwest West Virginia

CITY           SKY/WX    TMP DP  RH WIND       PRES   REMARKS
PARKERSBURG    CLOUDY    47  44  90 NW9       30.14R
$$

WVZ006-221100-
Western West Virginia

CITY           SKY/WX    TMP DP  RH WIND       PRES   REMARKS
HUNTINGTON     CLOUDY    45  41  86 VRB7      30.15R
$$

WVZ015-221100-
West Central West Virginia

CITY           SKY/WX    TMP DP  RH WIND       PRES   REMARKS
CHARLESTON     CLOUDY    45  42  89 NW7       30.12R
$$

WVZ022-031-221100-
North Central West Virginia

CITY           SKY/WX    TMP DP  RH WIND       PRES   REMARKS
CLARKSBURG     LGT RAIN  46  45  96 W6        30.06R FOG
MORGANTOWN     CLOUDY    49  45  86 VRB7      30.06R
$$

WVZ025-035-042-045-221100-
Southern West Virginia

CITY           SKY/WX    TMP DP  RH WIND       PRES   REMARKS
BECKLEY        LGT RAIN  41  39  93 NW9       30.07R
LOGAN          CLOUDY    43  41  93 NW6G13    30.12R FOG
BLUEFIELD      CLOUDY    41  37  86 W6        30.07R
LEWISBURG      CLOUDY    45  38  75 NW6       30.03S
$$

WVZ047-221100-
Northern Mountains of West Virginia

CITY           SKY/WX    TMP DP  RH WIND       PRES   REMARKS
ELKINS         LGT RAIN  44  43  96 NW7       30.05R
$$

WVZ052-221100-
Eastern Panhandle of West Virginia

CITY           SKY/WX    TMP DP  RH WIND       PRES   REMARKS
MARTINSBURG    CLOUDY    53  46  77 N10       29.94R
PETERSBURG     CLOUDY   N/A N/A N/A CALM      30.00S
$$




    US Dept of Commerce
    National Oceanic and Atmospheric Administration
    National Weather Service
    1325 East West Highway
    Silver Spring, MD 20910
    Page Author: NWS Internet Services Team
Disclaimer
Information Quality
Credits
Glossary
Privacy Policy
Freedom of Information Act (FOIA)
About Us
Career Opportunities